Tracking 29892 objects as of 21-Nov-2024
HD Live streaming from Space Station
objects crossing your sky now

STARLINK-30536

Track STARLINK-30536 now!
10-day predictions
STARLINK-30536 is classified as:


NORAD ID: 57993
Int'l Code: 2023-153C
Perigee: 565.2 km
Apogee: 567.2 km
Inclination: 43.0 °
Period: 95.8 minutes
Semi major axis: 6937 km
RCS: Unknown
Launch date: October 5, 2023
Source: United States (US)
Launch site: AIR FORCE EASTERN TEST RANGE (AFETR)
Your satellite tracking list
Your tracking list is empty




NASA's NSSDC Master Catalog

Two Line Element Set (TLE):
1 57993U 23153C   24325.90555149 -.00000397  00000-0 -14295-4 0  9997
2 57993  43.0037 123.4462 0001440 271.3185  88.7492 15.02537598 63608
Source of the keplerian elements: AFSPC